Flood From: 21-02-2018 10:08 Until: 22-02-2018 06:00 warning for: Flood Level: Yellow info button

Although rather usual in this region, locally or potentially dangerous phenomena are expected. (such as local winds, summer thunderstorms, rising streams or high waves) Be aware and pay attention to the latest weather updates, especially if you carry out activities exposed to weather or close to a stream or shoreline. 


Meteo18 Weather Cam more information Meteo18 Weather Cam


Thunder radar more information blitzortung!


Rain radar more information rain snow radar


Visit our other weather sites:

Template documentation
and downloads

And another site



Weather Underground History page Text

Daily Summary for February 21, 2018 Units:  Metric    English   Both
« Previous Day
Next Day »
Daily Weekly Monthly Yearly Custom
  Current: High: Low: Average:
Temperature: -15.1 °C -17.8 °C -18.1 °C -16.9 °C
Dew Point: -18.4 °C -17.8 °C -19.6 °C -18.7 °C
Humidity: 65 % Humidity % 62 % 80 %
Wind Speed: 36.5 km/h 0 km/h 0 km/h 17.4 km/h
Wind Gust: 59.5 km/h 0 km/h - -
Wind:NE - - ESE
Pressure: 34442.4 hPa 0 hPa 34442.4 hPa -
Precipitation: 0 mm      
Historical Graphs
 
 
Tabular Data for February 21, 2018
Time Temperature Dew Point Pressure Wind Wind Speed Wind Gust Humidity Rainfall Rate (Hourly)
-17.8 °C -17.8 °C 0 hPa Calm     Humidity % 0 mm
00:02 -16.5 °C -17.8 °C 34452.6 hPa NE 20.9 km/h 28.5 km/h 84 % 0 mm
00:08 -16.5 °C -17.8 °C 34452.6 hPa NNE 23 km/h 23.3 km/h 84 % 0 mm
00:14 -16.6 °C -17.9 °C 34462.7 hPa NE 10.3 km/h 20.8 km/h 84 % 0 mm
00:20 -16.6 °C -17.8 °C 34462.7 hPa NNW 2.3 km/h 20.8 km/h 85 % 0 mm
00:26 -16.6 °C -17.9 °C 34462.7 hPa NE 7.6 km/h 15.6 km/h 85 % 0 mm
00:32 -16.6 °C -17.9 °C 34462.7 hPa NNW 10.3 km/h 33.6 km/h 85 % 0 mm
00:38 -16.7 °C -18 °C 34476.3 hPa North 5.1 km/h 25.9 km/h 85 % 0 mm
00:44 -16.8 °C -18.1 °C 34476.3 hPa NNW 12.7 km/h 18.2 km/h 85 % 0 mm
00:50 -16.8 °C -18.1 °C 34476.3 hPa NNE 5.1 km/h 28.5 km/h 85 % 0 mm
00:56 -16.8 °C -18.1 °C 34476.3 hPa North 15.6 km/h 18.2 km/h 85 % 0 mm
01:02 -16.8 °C -18.1 °C 34476.3 hPa NE 10.3 km/h 18.2 km/h 85 % 0 mm
01:08 -16.8 °C -18.1 °C 34476.3 hPa NNE 7.6 km/h 20.8 km/h 85 % 0 mm
01:14 -16.8 °C -18 °C 34476.3 hPa NNW 10.3 km/h 18.2 km/h 86 % 0 mm
01:20 -16.8 °C -18 °C 34486.4 hPa ENE 2.3 km/h 20.8 km/h 86 % 0 mm
01:26 -16.9 °C -18.1 °C 34486.4 hPa NNW 15.6 km/h 23.3 km/h 86 % 0 mm
01:32 -16.9 °C -18.1 °C 34486.4 hPa NNW 5.1 km/h 15.6 km/h 86 % 0 mm
01:38 -16.9 °C -17.9 °C 34496.6 hPa NNE 10.3 km/h 12.9 km/h 87 % 0 mm
01:44 -16.9 °C -18.1 °C 34496.6 hPa North 10.3 km/h 20.8 km/h 86 % 0 mm
01:50 -16.9 °C -18.1 °C 34496.6 hPa NNE 12.7 km/h 15.6 km/h 86 % 0 mm
01:56 -16.9 °C -18.1 °C 34496.6 hPa NE 15.6 km/h 25.9 km/h 86 % 0 mm
02:02 -16.9 °C -18.1 °C 34486.4 hPa NNW 10.3 km/h 25.9 km/h 86 % 0 mm
02:08 -16.9 °C -18.1 °C 34486.4 hPa North 7.6 km/h 20.8 km/h 86 % 0 mm
02:14 -16.9 °C -18.1 °C 34486.4 hPa North 15.6 km/h 23.3 km/h 85 % 0 mm
02:20 -16.9 °C -18.1 °C 34486.4 hPa ENE 2.3 km/h 15.6 km/h 86 % 0 mm
02:26 -16.9 °C -18.2 °C 34486.4 hPa NE 15.6 km/h 25.9 km/h 85 % 0 mm
02:32 -17 °C -18.2 °C 34486.4 hPa NE 15.6 km/h 18.2 km/h 85 % 0 mm
02:38 -17.1 °C -18.2 °C 34486.4 hPa NNE 5.1 km/h 12.9 km/h 86 % 0 mm
02:44 -17.1 °C -18.3 °C 34486.4 hPa North 2.3 km/h 15.6 km/h 86 % 0 mm
02:50 -17.1 °C -18.3 °C 34486.4 hPa North 5.1 km/h 10.3 km/h 86 % 0 mm
02:56 -17.2 °C -18.3 °C 34486.4 hPa NE 10.3 km/h 15.6 km/h 86 % 0 mm
03:02 -17.2 °C -18.4 °C 34486.4 hPa Calm   10.3 km/h 86 % 0 mm
03:08 -17.3 °C -18.4 °C 34486.4 hPa NNE 5.1 km/h 12.9 km/h 86 % 0 mm
03:14 -17.3 °C -18.5 °C 34486.4 hPa Calm   7.7 km/h 86 % 0 mm
03:20 -17.4 °C -18.6 °C 34476.3 hPa Calm   5.1 km/h 86 % 0 mm
03:26 -17.5 °C -18.7 °C 34476.3 hPa Calm   7.7 km/h 86 % 0 mm
03:32 -17.6 °C -18.7 °C 34476.3 hPa Calm   7.7 km/h 86 % 0 mm
03:38 -17.6 °C -18.8 °C 34476.3 hPa Calm   2.6 km/h 86 % 0 mm
03:44 -17.6 °C -18.8 °C 34476.3 hPa Calm   10.3 km/h 86 % 0 mm
03:50 -17.6 °C -18.7 °C 34462.7 hPa Calm   15.6 km/h 86 % 0 mm
03:56 -17.5 °C -18.7 °C 34462.7 hPa NNE 10.3 km/h 10.3 km/h 85 % 0 mm
04:02 -17.4 °C -18.7 °C 34462.7 hPa NE 2.3 km/h 18.2 km/h 85 % 0 mm
04:08 -17.4 °C -18.7 °C 34462.7 hPa NE 15.6 km/h 15.6 km/h 84 % 0 mm
04:14 -17.4 °C -18.7 °C 34462.7 hPa North 7.6 km/h 18.2 km/h 84 % 0 mm
04:20 -17.4 °C -18.8 °C 34462.7 hPa Calm   7.7 km/h 84 % 0 mm
04:26 -17.5 °C -18.8 °C 34462.7 hPa Calm   12.9 km/h 84 % 0 mm
04:32 -17.6 °C -18.8 °C 34462.7 hPa North 10.3 km/h 25.9 km/h 85 % 0 mm
04:38 -17.6 °C -18.8 °C 34462.7 hPa NNE 26.2 km/h 26.2 km/h 86 % 0 mm
04:45 -17.6 °C -18.8 °C 34462.7 hPa Calm   20.8 km/h 86 % 0 mm
04:51 -17.6 °C -18.7 °C 34462.7 hPa ENE 2.3 km/h 23.3 km/h 86 % 0 mm
04:57 -17.6 °C -18.8 °C 34462.7 hPa North 5.1 km/h 15.6 km/h 86 % 0 mm
05:03 -17.6 °C -18.8 °C 34462.7 hPa North 2.3 km/h 20.8 km/h 85 % 0 mm
05:09 -17.6 °C -18.8 °C 34462.7 hPa Calm   15.6 km/h 85 % 0 mm
05:15 -17.6 °C -18.8 °C 34462.7 hPa NNE 10.3 km/h 20.8 km/h 85 % 0 mm
05:21 -17.6 °C -18.8 °C 34462.7 hPa NNE 7.6 km/h 20.8 km/h 86 % 0 mm
05:27 -17.7 °C -18.8 °C 34462.7 hPa NNW 10.3 km/h 28.5 km/h 86 % 0 mm
05:33 -17.7 °C -18.7 °C 34462.7 hPa NNE 7.6 km/h 23.3 km/h 87 % 0 mm
05:39 -17.7 °C -18.7 °C 34476.3 hPa NNW 10.3 km/h 23.3 km/h 87 % 0 mm
05:45 -17.7 °C -18.7 °C 34476.3 hPa North 26.2 km/h 28.5 km/h 87 % 0 mm
05:51 -17.7 °C -18.7 °C 34476.3 hPa NNE 10.3 km/h 25.9 km/h 87 % 0 mm
05:57 -17.7 °C -18.7 °C 34462.7 hPa NNE 12.7 km/h 23.3 km/h 87 % 0 mm
06:03 -17.7 °C -18.7 °C 34476.3 hPa NNE 15.6 km/h 18.2 km/h 87 % 0 mm
06:09 -17.7 °C -18.7 °C 34476.3 hPa NE 12.7 km/h 25.9 km/h 88 % 0 mm
06:15 -17.7 °C -18.7 °C 34476.3 hPa North 17.9 km/h 33.6 km/h 88 % 0 mm
06:21 -17.8 °C -18.7 °C 34476.3 hPa ENE 7.6 km/h 18.2 km/h 88 % 0 mm
06:27 -17.8 °C -18.7 °C 34476.3 hPa NNE 5.1 km/h 28.5 km/h 89 % 0 mm
06:33 -17.8 °C -18.6 °C 34476.3 hPa North 12.7 km/h 28.5 km/h 90 % 0 mm
06:39 -17.9 °C -18.7 °C 34476.3 hPa North 17.9 km/h 31.1 km/h 90 % 0 mm
06:45 -17.9 °C -18.6 °C 34476.3 hPa North 15.6 km/h 23.3 km/h 91 % 0 mm
06:51 -17.9 °C -18.7 °C 34486.4 hPa NNW 20.9 km/h 44.1 km/h 91 % 0 mm
06:57 -17.9 °C -18.7 °C 34476.3 hPa NNE 15.6 km/h 28.5 km/h 91 % 0 mm
07:03 -17.9 °C -18.7 °C 34476.3 hPa North 12.7 km/h 28.5 km/h 91 % 0 mm
07:09 -18 °C -18.6 °C 34476.3 hPa NE 17.9 km/h 18.2 km/h 92 % 0 mm
07:15 -18.1 °C -18.7 °C 34476.3 hPa North 10.3 km/h 25.9 km/h 92 % 0 mm
07:21 -18 °C -18.7 °C 34486.4 hPa NNE 10.3 km/h 23.3 km/h 91 % 0 mm
07:27 -18 °C -18.7 °C 34486.4 hPa NNE 10.3 km/h 31.1 km/h 91 % 0 mm
07:33 -17.9 °C -18.7 °C 34486.4 hPa NE 31.4 km/h 31.4 km/h 90 % 0 mm
07:39 -17.9 °C -18.7 °C 34486.4 hPa NE 2.3 km/h 20.8 km/h 90 % 0 mm
07:45 -18 °C -18.8 °C 34486.4 hPa NNW 5.1 km/h 31.1 km/h 90 % 0 mm
07:51 -18 °C -18.8 °C 34486.4 hPa NNE 7.6 km/h 31.1 km/h 90 % 0 mm
07:57 -18.1 °C -18.9 °C 34486.4 hPa NE 5.1 km/h 18.2 km/h 90 % 0 mm
08:03 -18.1 °C -18.8 °C 34486.4 hPa NE 12.7 km/h 25.9 km/h 91 % 0 mm
08:09 -18.1 °C -18.9 °C 34486.4 hPa NE 15.6 km/h 31.1 km/h 90 % 0 mm
08:15 -18 °C -18.8 °C 34486.4 hPa NE 15.6 km/h 36.2 km/h 90 % 0 mm
08:21 -18 °C -18.9 °C 34476.3 hPa NNW 7.6 km/h 44.1 km/h 89 % 0 mm
08:27 -17.9 °C -18.9 °C 34486.4 hPa NE 26.2 km/h 44.1 km/h 88 % 0 mm
08:33 -17.9 °C -19.1 °C 34486.4 hPa North 41.7 km/h 41.7 km/h 86 % 0 mm
08:39 -17.8 °C -19.1 °C 34486.4 hPa NNE 20.9 km/h 44.1 km/h 85 % 0 mm
08:45 -17.8 °C -19.1 °C 34486.4 hPa NE 26.2 km/h 38.8 km/h 84 % 0 mm
08:51 -17.7 °C -19.1 °C 34486.4 hPa NE 23 km/h 36.2 km/h 84 % 0 mm
08:57 -17.7 °C -19.1 °C 34486.4 hPa NNE 38.8 km/h 46.7 km/h 83 % 0 mm
09:03 -17.7 °C -19.1 °C 34486.4 hPa ENE 31.4 km/h 51.8 km/h 83 % 0 mm
09:09 -17.7 °C -19.1 °C 34486.4 hPa NNE 20.9 km/h 36.2 km/h 83 % 0 mm
09:15 -17.7 °C -19.1 °C 34486.4 hPa NE 31.4 km/h 49.2 km/h 83 % 0 mm
09:21 -17.7 °C -19.1 °C 34496.6 hPa NNE 26.2 km/h 33.6 km/h 83 % 0 mm
09:27 -17.6 °C -19 °C 34496.6 hPa NNE 17.9 km/h 31.1 km/h 83 % 0 mm
09:33 -17.6 °C -19.1 °C 34496.6 hPa North 26.2 km/h 26.2 km/h 82 % 0 mm
09:39 -17.6 °C -19.1 °C 34496.6 hPa NE 17.9 km/h 25.9 km/h 82 % 0 mm
09:45 -17.4 °C -19.1 °C 34496.6 hPa NNE 12.7 km/h 31.1 km/h 81 % 0 mm
09:51 -17.4 °C -19.2 °C 34496.6 hPa North 23 km/h 38.8 km/h 80 % 0 mm
09:57 -17.4 °C -19.1 °C 34496.6 hPa NE 26.2 km/h 31.1 km/h 80 % 0 mm
10:03 -17.4 °C -19.1 °C 34510.1 hPa NNE 33.6 km/h 33.6 km/h 80 % 0 mm
10:09 -17.3 °C -19.1 °C 34510.1 hPa North 12.7 km/h 36.2 km/h 79 % 0 mm
10:15 -17.3 °C -19.2 °C 34510.1 hPa NNW 17.9 km/h 41.4 km/h 78 % 0 mm
10:21 -17.3 °C -19.3 °C 34510.1 hPa NNE 17.9 km/h 51.8 km/h 77 % 0 mm
10:27 -17.2 °C -19.3 °C 34510.1 hPa NNE 41.7 km/h 46.7 km/h 76 % 0 mm
10:33 -17.1 °C -19.2 °C 34510.1 hPa NNE 31.4 km/h 44.1 km/h 76 % 0 mm
10:39 -17.1 °C -19.1 °C 34510.1 hPa NE 31.4 km/h 33.6 km/h 77 % 0 mm
10:49 -16.9 °C -19.2 °C 34510.1 hPa NE 26.2 km/h 41.4 km/h 74 % 0 mm
10:55 -16.9 °C -19.2 °C 34510.1 hPa NNE 20.9 km/h 46.7 km/h 74 % 0 mm
11:01 -16.9 °C -19.3 °C 34510.1 hPa NNE 31.4 km/h 57 km/h 73 % 0 mm
11:07 -16.8 °C -19.4 °C 34510.1 hPa NE 36.5 km/h 54.4 km/h 71 % 0 mm
11:13 -16.8 °C -19.6 °C 34510.1 hPa North 23 km/h 57 km/h 70 % 0 mm
11:19 -16.8 °C -19.4 °C 34510.1 hPa NE 28.5 km/h 54.4 km/h 71 % 0 mm
11:25 -16.8 °C -19.5 °C 34510.1 hPa NE 41.7 km/h 62.1 km/h 70 % 0 mm
11:31 -16.7 °C -19.2 °C 34510.1 hPa NE 46.3 km/h 49.2 km/h 72 % 0 mm
11:37 -16.7 °C -19.3 °C 34510.1 hPa NE 23 km/h 41.4 km/h 71 % 0 mm
11:43 -16.6 °C -19.2 °C 34510.1 hPa NNE 26.2 km/h 49.2 km/h 71 % 0 mm
11:49 -16.4 °C -18.9 °C 34510.1 hPa NNW 15.6 km/h 31.1 km/h 72 % 0 mm
11:55 -16.4 °C -19 °C 34510.1 hPa NNE 31.4 km/h 46.7 km/h 71 % 0 mm
12:01 -16.4 °C -19.2 °C 34510.1 hPa NNE 28.5 km/h 36.2 km/h 70 % 0 mm
12:07 -16.4 °C -19.2 °C 34510.1 hPa NNE 17.9 km/h 44.1 km/h 69 % 0 mm
12:13 -16.3 °C -18.9 °C 34510.1 hPa NE 26.2 km/h 33.6 km/h 71 % 0 mm
12:19 -16.3 °C -19.2 °C 34510.1 hPa NE 20.9 km/h 41.4 km/h 69 % 0 mm
12:25 -16.3 °C -19.4 °C 34496.6 hPa NNW 15.6 km/h 41.4 km/h 67 % 0 mm
12:31 -16.3 °C -19.2 °C 34496.6 hPa NNE 33.6 km/h 46.7 km/h 68 % 0 mm
12:37 -16.2 °C -19.1 °C 34496.6 hPa East 15.6 km/h 38.8 km/h 69 % 0 mm
12:43 -16.1 °C -18.9 °C 34496.6 hPa North 17.9 km/h 25.9 km/h 69 % 0 mm
12:49 -16 °C -18.8 °C 34496.6 hPa North 26.2 km/h 36.2 km/h 69 % 0 mm
12:55 -16 °C -19.1 °C 34496.6 hPa ENE 17.9 km/h 44.1 km/h 67 % 0 mm
13:01 -15.9 °C -18.9 °C 34486.4 hPa ENE 17.9 km/h 44.1 km/h 67 % 0 mm
13:07 -15.9 °C -18.7 °C 34486.4 hPa NNE 12.7 km/h 36.2 km/h 69 % 0 mm
13:13 -15.8 °C -18.9 °C 34486.4 hPa NW 31.4 km/h 41.4 km/h 67 % 0 mm
13:19 -15.7 °C -18.8 °C 34486.4 hPa NE 28.5 km/h 33.6 km/h 67 % 0 mm
13:25 -15.7 °C -18.8 °C 34486.4 hPa NE 26.2 km/h 33.6 km/h 67 % 0 mm
13:31 -15.6 °C -18.6 °C 34476.3 hPa North 23 km/h 38.8 km/h 68 % 0 mm
13:37 -15.5 °C -18.6 °C 34476.3 hPa NNW 31.4 km/h 38.8 km/h 67 % 0 mm
13:43 -15.5 °C -18.9 °C 34476.3 hPa NNE 28.5 km/h 49.2 km/h 64 % 0 mm
13:49 -15.6 °C -18.9 °C 34476.3 hPa North 33.6 km/h 49.2 km/h 65 % 0 mm
13:55 -15.4 °C -18.7 °C 34476.3 hPa North 26.2 km/h 38.8 km/h 66 % 0 mm
14:01 -15.4 °C -18.4 °C 34476.3 hPa NNW 28.5 km/h 36.2 km/h 68 % 0 mm
14:07 -15.4 °C -18.7 °C 34462.7 hPa NNW 28.5 km/h 33.6 km/h 66 % 0 mm
14:13 -15.3 °C -18.6 °C 34462.7 hPa North 17.9 km/h 36.2 km/h 66 % 0 mm
14:19 -15.3 °C -18.7 °C 34462.7 hPa NNE 28.5 km/h 41.4 km/h 65 % 0 mm
14:25 -15.3 °C -18.5 °C 34462.7 hPa North 15.6 km/h 38.8 km/h 66 % 0 mm
14:31 -15.2 °C -18.4 °C 34462.7 hPa NNE 26.2 km/h 36.2 km/h 66 % 0 mm
14:37 -15.2 °C -18.5 °C 34462.7 hPa North 44.1 km/h 44.1 km/h 65 % 0 mm
14:43 -15.2 °C -18.4 °C 34462.7 hPa NE 31.4 km/h 36.2 km/h 66 % 0 mm
14:49 -15.3 °C -18.6 °C 34452.6 hPa NNE 23 km/h 49.2 km/h 65 % 0 mm
14:55 -15.2 °C -18.6 °C 34452.6 hPa NE 31.4 km/h 44.1 km/h 65 % 0 mm
15:01 -15.2 °C -18.6 °C 34452.6 hPa NNE 41.7 km/h 51.8 km/h 65 % 0 mm
15:07 -15.2 °C -18.7 °C 34452.6 hPa NNW 33.6 km/h 41.4 km/h 64 % 0 mm
15:13 -15.2 °C -18.9 °C 34442.4 hPa North 15.6 km/h 54.4 km/h 62 % 0 mm
15:19 -15.2 °C -18.4 °C 34442.4 hPa NNE 49.2 km/h 49.2 km/h 66 % 0 mm
15:25 -15.2 °C -18.6 °C 34442.4 hPa NE 15.6 km/h 49.2 km/h 64 % 0 mm
15:31 -15.1 °C -18.4 °C 34442.4 hPa NE 20.9 km/h 46.7 km/h 65 % 0 mm
15:37 -15.1 °C -18.4 °C 34442.4 hPa NNE 26.2 km/h 38.8 km/h 65 % 0 mm
15:43 -15.1 °C -18.4 °C 34442.4 hPa NE 36.5 km/h 59.5 km/h 65 % 0 mm
Meteo18
Compliments of Weather Underground - 4 mb

Script developed by  Jim McMurry - jmcmurry@mwt.net Adapted for the template by  Wim van der Kuil - Leuven-Template.eu

You find our weather info also at:

European Weather Network

Weather Underground

Equipment we use:

Weather-station
Davis Vue

Weather-program
Meteobridge

Weather-server
Raspberry PI 2 B+

Provider
1 and 1

Davis Vue

Meteobridge

Raspberry PI 2 B+

1 and 1